www.pogodaiklimat.ru

АРХИВ ПОГОДЫ в Оклахоме-Сити

Время (UTC), дата Ветер
(напр.,м/с)
 
Видим.   Явления Облачность Т
(С)
Тd
(С)
f
(%)
Тe
(С)
Тes
(С)
Комфортность

P
(гПа)

Po
(гПа)
Тmin
(С)
Tmax
(С)
R
(мм)
SD
(см)
09:52 19.05 Ю  16 км    8/2 1800 м
[средняя] 
+21.0  +19.0  88  +26  +26  душно  1006.3  961.8         
10:52 19.05 Ю  16 км    5/2 1500 м
[средняя] 
+20.6  +18.3  87  +25  +25  комфорт  1007.1  962.4  +20.6  +23.9     
11:52 19.05 Ю  16 км    2/2 1500 м
[средняя] 
+22.8  +18.9  79  +29  +29  очень
душно 
1007.7  963.1         
12:52 19.05 Ю  16 км    2/0 2100 м
[средняя] 
+24.4  +18.9  71  +29  +30  душно  1007.8  963.1         
13:52 19.05 Ю  8
{11} 
16 км    2/0 2100 м
[средняя] 
+26.0  +18.0  61  +30  +31  душно  1007.8  963.1         
14:52 19.05 Ю  16 км    ясно  +28.3  +17.8  53  +33  +35  очень
душно 
1007.7  963.1         
15:52 19.05 Ю  8
{13} 
16 км    2/0 4500 м
[средняя] 
+29.4  +15.6  43  +32  +33  душно  1007.6  963.1         
16:52 19.05 Ю  8
{10} 
16 км    2/0 2400 м
[средняя] 
+31.0  +16.0  40  +34  +36  душно  1008.1  963.4  +20.6       
17:52 19.05 Ю  9
{10} 
16 км    5/0 2400 м
[средняя] 
+31.1  +15.6  39  +34  +34  душно  1008.4  963.7         
18:52 19.05 ЮЗ  9
{11} 
16 км    5/0 2100 м
[средняя верхняя] 
+31.0  +14.0  36  +33  +33  душно  1007.9  963.4         
19:52 19.05 ЮЗ  7
{11} 
16 км    8/2 1800 м
[средняя верхняя] 
+31.0  +16.0  40  +34  +35  душно  1008.1  963.4         
20:52 19.05 Ю  16 км    8/5 1800 м
[средняя верхняя] 
+29.0  +17.0  48  +33  +35  очень
душно 
1009.0  964.0         
21:52 19.05 Ю  16 км    10/0 4500 м
[средняя] 
+27.2  +18.3  58  +32  +34  очень
душно 
1009.7  964.7         
22:52 19.05 ЮВ  16 км    8/0 4500 м
[средняя] 
+27.0  +18.0  58  +32  +33  очень
душно 
1008.8  964.0  +26.7       
23:52 19.05 Ю  16 км    8/0 4500 м
[средняя] 
+25.6  +18.9  66  +31  +31  очень
душно 
1010.0  965.0         
00:52 20.05 Ю  16 км    10/0 3000 м
[средняя] 
+25.0  +19.0  69  +30  +30  душно  1011.2  966.3         
01:52 20.05 ЮЗ  16 км    10/0 3300 м
[средняя] 
+24.4  +19.4  74  +30  +30  очень
душно 
  966.3         
02:15 20.05 ЮЗ  16 км  гроза со слабым дождем  10/0 2100 м
[средняя] 
+24.0  +20.0  78  +29  +29  душно    967.3         
02:52 20.05 З  16 км  гроза  10/5 960 м
[средняя] 
+21.1  +16.7  76  +25  +25  комфорт  1012.8           
03:46 20.05 Ю  13
{17} 
13 км  гроза со слабым дождем  10/2 1500 м
[средняя] 
+22.0  +18.0  78  +27  +27  душно             
03:52 20.05 Ю  10
{17} 
13 км  гроза со слабым дождем  10/2 1500 м
[средняя] 
+23.3  +13.9  55  +27  +27  душно  1011.2           
04:03 20.05 ЮЗ  6
{20} 
10 км  гроза со слабым дождем  10/8 1350 м
[средняя] 
+25.0  +8.9  36  +26  +26  жарко             
04:52 20.05 Ю  9
{13} 
14 км  гроза со слабым дождем  10/2 1350 м
[средняя] 
+18.9  +14.4  75  +19  +19    1012.9    +18.3  +27.2  2.8   
04:56 20.05 Ю  9
{13} 
13 км  гроза с дождем  10/2 1350 м
[средняя] 
+18.0  +15.0  83  +17  +17               
05:52 20.05 Ю  6
{9} 
13 км  гроза с дождем  10/2 1350 м
[средняя] 
+17.8  +16.1  90  +17  +17    1014.7           
06:52 20.05 С  10 км  гроза с дождем, дымка  10/5 1950 м
[средняя] 
+18.0  +16.0  88  +18  +18    1013.4           
07:29 20.05 З  4 км  гроза с дождем, дымка  10/2 990 м
[средняя] 
+17.2  +16.1  93  +18  +18      969.5         
07:44 20.05 ЮВ  6 км  гроза с дождем, дымка  10/8 1800 м
[средняя] 
+17.2  +16.1  93  +18  +18      969.5         
07:52 20.05 штиль  8 км  гроза с дождем, дымка  10/8 1800 м
[средняя] 
+17.0  +16.0  94  +17  +17    1014.4  969.2      11.4   
08:17 20.05 СВ  16 км  слабый дождь  10/2 1500 м
[средняя] 
+17.2  +16.1  93  +17  +17      968.9         
08:52 20.05 В  16 км    10/0 2250 м
[средняя] 
+17.2  +16.7  97  +17  +17    1014.8  969.5         
09:52 20.05 СЗ  16 км  слабый дождь  10/2 900 м
[средняя] 
+16.7  +16.1  96  +16  +16    1015.7  970.2         
10:52 20.05 СЗ  16 км    10/0 2250 м
[средняя] 
+17.2  +16.1  93  +17  +17    1015.9  970.5  +16.7  +18.9  11.4   
11:39 20.05 СЗ  16 км    10/8 240 м
[средняя верхняя] 
+17.2  +16.7  97  +17  +17      970.2         
11:52 20.05 СЗ  16 км  слабый дождь  10/8 240 м
[средняя] 
+17.2  +16.7  97  +16  +16    1011.5  970.2         
12:52 20.05 СЗ  16 км  слабый дождь  10/10 210 м  +16.0  +15.0  94  +14  +14    1017.0  971.2         
13:52 20.05 СЗ  11 км    10/10 240 м  +17.0  +15.0  88  +16  +16    1017.5  971.8         
14:52 20.05 С  14 км    10/8 270 м
[средняя] 
+17.8  +15.0  84  +18  +18    1018.0  972.1         
14:59 20.05 С  14 км    10/8 330 м
[средняя] 
+17.8  +15.0  84  +17  +18      972.1         
15:52 20.05 С  16 км    8/8 390 м
[средняя] 
+18.9  +15.6  81  +20  +21    1017.8  972.1         
16:52 20.05 С  16 км    10/10 360 м  +18.0  +15.0  83  +18  +18    1017.7  971.8  +16.1       
17:52 20.05 С  16 км    10/10 510 м  +20.6  +15.6  73  +23  +23  комфорт  1017.7  971.8         
18:52 20.05 С  16 км    8/8 690 м  +21.7  +15.6  68  +25  +26  комфорт  1017.5  971.8         
19:52 20.05 С  16 км    8/8 690 м
[средняя] 
+22.0  +15.0  64  +25  +28  комфорт  1017.0  971.2         
20:17 20.05 С  16 км    8/5 720 м
[верхняя] 
+21.7  +15.0  66  +25  +30  комфорт    971.2         
20:52 20.05 СЗ  16 км    8/2 690 м
[верхняя] 
+21.7  +14.4  63  +25  +35  комфорт  1016.4  970.5         
21:52 20.05 СЗ  16 км    8/2 750 м
[верхняя] 
+21.7  +14.4  63  +25  +30  комфорт  1016.3  970.5         
22:52 20.05 СВ  16 км    8/2 750 м
[верхняя] 
+22.0  +15.0  64  +25  +29  комфорт  1015.8  970.2  +18.3       

 

Местоположение метеостанции Will Rogers World Airport: широта 35.3886 долгота -97.6003 высота над уровнем моря 394 м.

В архиве по умолчанию представлена погода в Оклахоме-Сити за последние 1-2 суток. Обновление информации о фактической погоде в базе происходит ежечасно! Архивные данные за месяц целиком и за предыдущие месяцы Вы можете получить, выбрав интересующий диапазон дат из раскрывающегося списка и нажав кнопку "Ввод!".

Внимание! Архив погоды МЕТАР в базе сайта в настоящее время начинается c 1 января 2013 г. Нет смысла пытаться выбрать более раннюю дату.

Внимание! Время в таблицах - всемирное. Для получения местного времени необходимо прибавить поправку, которая в Оклахоме-Сити равна -6 ч.

Ветер - указаны скорость ветра в м/с и направление, откуда дует ветер: С - северный, СВ - северо-восточный, В - восточный, ЮВ - юго-восточный, Ю - южный, ЮЗ - юго-западный, З - западный, СЗ - северо-западный.
Видимость - горизонтальная дальность видимости в метрах или километрах. При видимости от 1 до 10 км при отсутствии осадков обычно наблюдается дымка, при ухудшении видимости до 1 км и менее - туман. В сухую погоду видимость может ухудшаться дымом, пылью или мглою.
Атмосферные явления - указаны явления, наблюдавшиеся в указанный момент времени.
Облачность - указаны через наклонную черту верхняя и нижняя облачность в баллах и высота нижней границы облаков в метрах. Внимание: облачность, как и прочие метеорологические величины в США измеряются автоматическими метеостанциями. Указанные значения в баллах носят условный характер и показывают процент времени, в течение которого, в среднем, лазерный луч высотомера отражался от облаков обратно.
T - Температура воздуха - температура, измеренная на высоте 2 м над землей.
Td - Температура точки росы - температура, при понижении до которой содержащийся в воздухе водяной пар достигнет насыщения.
f - Относительная влажность воздуха - влажноcть воздуха, измеренная на высоте 2 м над землей.
Te - Эффективная температура - температура, которую ощущает одетый по сезону человек в тени. Характеристика душности погоды. При расчете учитывается влияние влажности воздуха и скорости ветра на теплоощущения человека.
Tes - Эффективная температура на солнце - температура, которую ощущает человек, с поправкой на солнечный нагрев. Характеристика знойности погоды. Зависит от высоты солнца над горизонтом, облачности и скорости ветра. Ночью, в пасмурную погоду, а также при ветре 12 м/с и более поправка равна нулю.
P - Атмосферное давление - приведенное к уровню моря атмосферное давление.
Po - Атмосферное давление - измеренное на уровне метеостанции атмосферное давление.
Tmin - Минимальная температура - минимум температуры воздуха на высоте 2 м над землей.
Tmax - Максимальная температура - максимум температуры воздуха на высоте 2 м над землей.
R - Количество осадков - Количество выпавших осадков за 3 или 6 часов, мм.
SD - Снежный покров - Высота снежного покрова, см.